TimeAKDT,TemperatureF,Dew PointF,Humidity,Sea Level PressureIn,VisibilityMPH,Wind Direction,Wind SpeedMPH,Gust SpeedMPH,PrecipitationIn,Events,Conditions,WindDirDegrees,DateUTC
12:53 AM,60.1,54.0,80,30.15,10.0,SSW,5.8,-,N/A,,Scattered Clouds,200,2013-08-01 08:53:00
1:53 AM,57.0,53.1,87,30.15,10.0,Calm,Calm,-,N/A,,Scattered Clouds,0,2013-08-01 09:53:00
2:53 AM,55.9,52.0,87,30.14,10.0,SSW,3.5,-,N/A,,Scattered Clouds,200,2013-08-01 10:53:00
3:53 AM,54.0,51.1,90,30.13,10.0,SSE,3.5,-,N/A,,Scattered Clouds,160,2013-08-01 11:53:00
4:53 AM,55.0,51.1,86,30.12,10.0,Calm,Calm,-,N/A,,Scattered Clouds,0,2013-08-01 12:53:00
5:53 AM,57.0,52.0,83,30.11,10.0,Calm,Calm,-,N/A,,Scattered Clouds,0,2013-08-01 13:53:00
6:00 AM,57.2,51.8,82,30.11,10.0,Calm,Calm,-,N/A,,Mostly Cloudy,0,2013-08-01 14:00:00
6:53 AM,59.0,53.1,81,30.11,10.0,West,4.6,-,N/A,,Mostly Cloudy,270,2013-08-01 14:53:00
7:53 AM,59.0,54.0,83,30.10,10.0,Calm,Calm,-,N/A,,Mostly Cloudy,0,2013-08-01 15:53:00
8:53 AM,61.0,54.0,78,30.10,10.0,Calm,Calm,-,N/A,,Overcast,0,2013-08-01 16:53:00
9:53 AM,62.1,54.0,75,30.09,10.0,WNW,3.5,-,N/A,,Mostly Cloudy,290,2013-08-01 17:53:00
10:53 AM,62.1,54.0,75,30.09,10.0,NW,5.8,-,N/A,,Mostly Cloudy,310,2013-08-01 18:53:00
11:53 AM,63.0,54.0,72,30.08,10.0,NW,4.6,-,N/A,,Mostly Cloudy,320,2013-08-01 19:53:00
12:53 PM,64.9,55.0,70,30.07,10.0,NNW,3.5,-,N/A,,Mostly Cloudy,340,2013-08-01 20:53:00
1:53 PM,64.9,55.0,70,30.05,10.0,NW,4.6,-,N/A,,Mostly Cloudy,320,2013-08-01 21:53:00
2:53 PM,66.0,53.1,63,30.04,10.0,NW,5.8,-,N/A,,Overcast,320,2013-08-01 22:53:00
3:33 PM,69.8,53.6,56,30.03,10.0,WNW,6.9,-,N/A,,Mostly Cloudy,300,2013-08-01 23:33:00
3:53 PM,68.0,53.1,59,30.03,10.0,WNW,5.8,-,N/A,,Mostly Cloudy,300,2013-08-01 23:53:00
4:53 PM,68.0,53.1,59,30.01,10.0,WNW,8.1,-,N/A,,Mostly Cloudy,300,2013-08-02 00:53:00
5:53 PM,66.9,54.0,63,29.99,10.0,WNW,6.9,-,N/A,,Mostly Cloudy,290,2013-08-02 01:53:00
6:53 PM,70.0,55.0,59,29.97,10.0,Variable,4.6,-,N/A,,Mostly Cloudy,0,2013-08-02 02:53:00
7:53 PM,66.9,55.0,66,29.97,10.0,WNW,3.5,-,N/A,,Mostly Cloudy,300,2013-08-02 03:53:00
8:53 PM,68.0,55.0,63,29.96,10.0,SSE,8.1,-,N/A,,Mostly Cloudy,160,2013-08-02 04:53:00
9:53 PM,64.9,55.0,70,29.97,10.0,SE,4.6,-,N/A,,Mostly Cloudy,140,2013-08-02 05:53:00
10:53 PM,64.9,50.0,58,29.97,10.0,SE,12.7,20.7,N/A,,Mostly Cloudy,140,2013-08-02 06:53:00
11:53 PM,64.0,50.0,60,29.97,10.0,SSE,15.0,28.8,N/A,,Mostly Cloudy,150,2013-08-02 07:53:00